EW5807 Weather Reports


Display with metric or nautical units.
time (UTC)temp
F
wind
direction
speed
MPH
gust
MPH
rain 1hr
in
rain 24hr
in
rain mn
in
humidity
%
barometer
mb
20260905020009 71 292 3.0 9.0 0.00 0.00 0.00 27 1003.2
20260905014503 73 297 5.0 9.0 0.00 0.00 0.00 26 1003.1
20260905013102 74 284 6.0 10.0 0.00 0.00 0.00 24 1002.9
20260905011554 76 297 6.0 10.0 0.00 0.00 0.00 23 1002.9
20260905010052 77 281 4.0 13.0 0.00 0.00 0.00 23 1002.7
20260905004544 78 314 6.0 11.0 0.00 0.00 0.00 21 1002.5
20260905003044 78 328 3.0 10.0 0.00 0.00 0.00 21 1002.5
20260905001542 78 289 7.0 13.0 0.00 0.00 0.00 20 1002.3
20260905000025 78 299 7.0 13.0 0.00 0.00 0.00 20 1002.2
20260904234508 79 335 5.0 11.0 0.00 0.00 0.00 20 1002.4
20260904233005 77 304 2.0 5.0 0.00 0.00 0.00 20 1002.4
20260904231504 76 322 0.0 8.0 0.00 0.00 0.00 21 1002.6
20260904230003 77 206 4.0 10.0 0.00 0.00 0.00 20 1002.6
20260904224503 78 217 6.0 12.0 0.00 0.00 0.00 19 1002.8
20260904223033 80 211 8.0 14.0 0.00 0.00 0.00 18 1003.0
20260904221532 80 234 8.0 12.0 0.00 0.00 0.00 19 1003.1
20260904220048 80 225 5.0 12.0 0.00 0.00 0.00 20 1003.3
20260904214535 79 229 8.0 15.0 0.00 0.00 0.00 20 1003.6
20260904213026 79 217 2.0 11.0 0.00 0.00 0.00 20 1003.7
20260904211529 78 283 8.0 13.0 0.00 0.00 0.00 20 1003.8
20260904210029 78 205 6.0 15.0 0.00 0.00 0.00 21 1004.0
20260904204521 77 217 7.0 16.0 0.00 0.00 0.00 21 1004.2
20260904203031 77 245 11.0 18.0 0.00 0.00 0.00 21 1004.4
20260904201520 76 260 8.0 18.0 0.00 0.00 0.00 21 1004.4
20260904200015 75 226 10.0 19.0 0.00 0.00 0.00 22 1004.7
20260904194521 75 203 9.0 15.0 0.00 0.00 0.00 23 1004.8
20260904193016 74 243 7.0 18.0 0.00 0.00 0.00 24 1005.0
20260904191514 75 187 10.0 17.0 0.00 0.00 0.00 24 1005.4
20260904190012 73 231 8.0 17.0 0.00 0.00 0.00 24 1005.5
20260904184551 73 229 7.0 14.0 0.00 0.00 0.00 25 1005.7
20260904183048 72 236 5.0 16.0 0.00 0.00 0.00 27 1006.0
20260904181511 71 213 5.0 10.0 0.00 0.00 0.00 27 1006.1
20260904180010 68 84 1.0 7.0 0.00 0.00 0.00 35 1006.3
20260904174510 67 302 0.0 6.0 0.00 0.00 0.00 36 1006.3
20260904173025 66 326 2.0 8.0 0.00 0.00 0.00 37 1006.5
20260904171507 65 305 2.0 8.0 0.00 0.00 0.00 39 1006.6
20260904170013 64 49 0.0 5.0 0.00 0.00 0.00 41 1006.5
20260904164509 63 335 1.0 5.0 0.00 0.00 0.00 43 1006.6
20260904163007 63 65 0.0 3.0 0.00 0.00 0.00 44 1006.7
20260904161504 61 8 0.0 2.0 0.00 0.00 0.00 45 1006.8
20260904160003 60 273 0.0 4.0 0.00 0.00 0.00 47 1006.8
20260904154532 59 65 0.0 2.0 0.00 0.00 0.00 49 1006.8
20260904153031 57 352 0.0 2.0 0.00 0.00 0.00 51 1006.9
20260904151529 55 347 0.0 1.0 0.00 0.00 0.00 55 1007.0
20260904150034 53 268 0.0 0.0 0.00 0.00 0.00 57 1006.9
20260904144525 52 53 0.0 0.0 0.00 0.00 0.00 59 1006.9
20260904143025 50 54 0.0 0.0 0.00 0.00 0.00 62 1006.6
20260904141531 48 54 0.0 0.0 0.00 0.00 0.00 65 1006.4
20260904140039 46 54 0.0 0.0 0.00 0.00 0.00 67 1006.1
20260904134517 46 54 0.0 1.0 0.00 0.00 0.00 65 1005.9
20260904133013 46 54 0.0 0.0 0.00 0.00 0.00 69 1005.8
20260904131507 45 54 0.0 0.0 0.00 0.00 0.00 67 1005.6
20260904130005 47 54 0.0 0.0 0.00 0.00 0.00 65 1005.4
20260904124503 46 54 0.0 0.0 0.00 0.00 0.00 67 1005.2
20260904123002 46 13 0.0 0.0 0.00 0.00 0.00 66 1005.1
20260904121558 45 13 0.0 1.0 0.00 0.00 0.00 67 1004.9
20260904120104 45 13 0.0 0.0 0.00 0.00 0.00 67 1004.8
20260904114554 44 314 0.0 0.0 0.00 0.00 0.00 66 1004.8
20260904113053 47 314 0.0 2.0 0.00 0.00 0.00 58 1004.7
20260904111546 51 125 0.0 1.0 0.00 0.00 0.00 61 1004.5
20260904110045 50 125 0.0 0.0 0.00 0.00 0.00 62 1004.3
20260904104544 49 125 0.0 0.0 0.00 0.00 0.00 59 1004.2
20260904103040 51 125 0.0 0.0 0.00 0.00 0.00 58 1004.1
20260904101535 51 125 0.0 0.0 0.00 0.00 0.00 58 1004.1
20260904100037 52 125 0.0 0.0 0.00 0.00 0.00 58 1004.0
20260904094541 52 138 0.0 1.0 0.00 0.00 0.00 58 1003.9
20260904093039 52 129 0.0 2.0 0.00 0.00 0.00 56 1003.9
20260904091535 51 132 0.0 2.0 0.00 0.00 0.00 56 1004.1
20260904090026 52 138 0.0 3.0 0.00 0.00 0.00 54 1004.1
20260904084523 52 152 0.0 3.0 0.00 0.00 0.00 51 1004.1
20260904083022 53 150 1.0 3.0 0.00 0.00 0.00 51 1004.1
20260904081548 53 138 0.0 3.0 0.00 0.00 0.00 48 1004.1
20260904080054 54 158 2.0 4.0 0.00 0.00 0.00 48 1003.9
20260904074542 54 155 0.0 2.0 0.00 0.00 0.00 46 1003.8
20260904073041 56 204 0.0 3.0 0.00 0.00 0.00 41 1003.8
20260904071536 56 167 1.0 4.0 0.00 0.00 0.00 40 1003.7
20260904070039 57 155 0.0 3.0 0.00 0.00 0.00 39 1003.3
20260904064539 56 210 0.0 4.0 0.00 0.00 0.00 39 1003.1
20260904063030 55 146 0.0 3.0 0.00 0.00 0.00 39 1003.0
20260904061535 54 158 0.0 1.0 0.00 0.00 0.00 38 1002.8
20260904060027 55 207 0.0 2.0 0.00 0.00 0.00 36 1002.5
20260904054521 56 203 0.0 0.0 0.00 0.00 0.00 36 1002.2
20260904053013 56 189 0.0 1.0 0.00 0.00 0.00 35 1002.1
20260904051511 56 200 0.0 2.0 0.00 0.00 0.00 34 1001.9
20260904050008 57 203 0.0 2.0 0.00 0.00 0.00 33 1001.9
20260904044508 58 207 0.0 2.0 0.00 0.00 0.00 32 1001.9
20260904043106 60 162 0.0 2.0 0.00 0.00 0.00 30 1001.7
20260904041559 62 146 0.0 2.0 0.00 0.00 0.00 30 1001.7
20260904040052 64 148 0.0 2.0 0.00 0.00 0.00 28 1001.6
20260904034550 64 157 0.0 3.0 0.00 0.00 0.00 27 1001.5
20260904033046 64 158 0.0 0.0 0.00 0.00 0.00 27 1001.5
20260904031544 65 139 0.0 3.0 0.00 0.00 0.00 26 1001.6
20260904030041 66 290 0.0 1.0 0.00 0.00 0.00 25 1001.2
20260904024538 68 288 0.0 7.0 0.00 0.00 0.00 24 1001.1
20260904023037 70 302 4.0 8.0 0.00 0.00 0.00 22 1000.7
20260904021540 73 288 8.0 15.0 0.00 0.00 0.00 20 1000.4